This demonstration page uses our WeatherBlox Daily Observations layout. Learn more.

Left ArrowRight Arrow

41.12389, -100.76542

Hourly Observations for May 19, 2017

Temp ( °F °C ) Dew Point ( °F °C ) Humidity (%) Winds ( mph kmh ) Pressure ( in mb ) Visibility ( mi km ) Precip ( " mm )
12:53 am 00:53 Cloudy with Light Rain 49 9.4 48 8.9 97 97 NE 13 20 29.99 1016 3 5 0.01 0.25
1:28 am 01:28 Cloudy with Light Rain 49 9.4 48 8.9 97 97 NE 12 19 30.00 1016 3 4 0.01 0.25
1:53 am 01:53 Cloudy with Light Rain 48 8.9 48 8.9 100 100 NE 13 20 30.00 1016 3 4 0.02 0.51
2:01 am 02:01 Cloudy with Mist and Fog 48 8.9 48 8.9 100 100 NE 13 20 30.00 1016 3 5 0.00 0.03
2:53 am 02:53 Cloudy with Mist and Fog 48 8.9 47 8.3 96 96 NNE 13 20 29.99 1016 5 8 0.01 0.25
3:53 am 03:53 Cloudy 48 8.9 46 7.8 93 93 NE 12 19 29.98 1015 7 11 0.00 0.00
4:53 am 04:53 Cloudy 47 8.3 46 7.8 97 97 NE 15 24 29.98 1015 10 16 0.00 0.00
5:53 am 05:53 Cloudy 48 8.9 46 7.8 93 93 NE 13 20 30.01 1016 10 16 0.00 0.00
6:53 am 06:53 Cloudy 47 8.3 45 7.2 93 93 NE 15 24 30.00 1016 10 16 0.00 0.00
7:34 am 07:34 Cloudy 47 8.3 45 7.2 93 93 NE 18 30 30.00 1016 10 16 0.00 0.00
7:53 am 07:53 Cloudy 47 8.3 45 7.2 93 93 NE 18 30 30.00 1016 10 16 0.00 0.00
8:15 am 08:15 Cloudy 47 8.3 45 7.2 93 93 NE 15 24 30.00 1016 10 16 0.00 0.00
8:53 am 08:53 Cloudy 47 8.3 45 7.2 93 93 NE 15 24 30.04 1017 7 11 0.00 0.00
9:53 am 09:53 Cloudy with Light Rain 48 8.9 46 7.8 93 93 NE 13 20 30.03 1017 4 6 0.00 0.03
10:38 am 10:38 Cloudy with Light Rain 48 8.9 46 7.8 93 93 NE 13 20 30.03 1017 3 5 0.00 0.03
10:53 am 10:53 Cloudy with Light Rain 48 8.9 46 7.8 93 93 NE 13 20 30.04 1017 6 10 0.00 0.03
11:11 am 11:11 Cloudy with Light Rain 47 8.3 45 7.2 93 93 NE 13 20 30.09 1019 3 5 0.00 0.03
11:18 am 11:18 Cloudy with Light Rain 47 8.3 46 7.8 97 97 NE 15 24 30.06 1018 2 3 0.01 0.25
11:34 am 11:34 Cloudy with Light Rain 47 8.3 45 7.2 93 93 NE 16 26 30.06 1018 3 4 0.01 0.25
11:53 am 11:53 Cloudy with Light Rain 47 8.3 45 7.2 93 93 NE 16 26 30.06 1018 10 16 0.02 0.51
12:08 pm 12:08 Cloudy with Light Rain 47 8.3 45 7.2 93 93 NE 14 22 30.09 1019 4 6 0.00 0.03
12:27 pm 12:27 Cloudy with Light Rain 47 8.3 45 7.2 93 93 NE 13 20 30.09 1019 4 6 0.01 0.25
12:37 pm 12:37 Cloudy with Light Rain 47 8.3 45 7.2 93 93 NE 13 20 30.09 1019 3 5 0.01 0.25
12:45 pm 12:45 Cloudy with Light Rain 47 8.3 45 7.2 93 93 NE 7 11 30.09 1019 3 5 0.02 0.51
12:48 pm 12:48 Cloudy with Light Rain 46 8 45 7 93 93 NE 8 13 30.09 1019 3 4 0.02 0.51
12:53 pm 12:53 Cloudy with Light Rain 47 8.3 45 7.2 93 93 NE 9 15 30.06 1018 3 4 0.02 0.51
12:58 pm 12:58 Cloudy with Light Rain 47 8.3 46 7.8 97 97 NE 12 19 30.09 1019 3 5 0.01 0.25
1:15 pm 13:15 Cloudy with Light Rain 47 8.3 45 7.2 93 93 NNE 13 20 30.09 1019 4 6 0.03 0.76
1:25 pm 13:25 Cloudy with Light Rain 47 8.3 45 7.2 93 93 NNE 12 19 30.06 1018 5 8 0.03 0.76
1:53 pm 13:53 Cloudy with Light Rain 47 8.3 45 7.2 93 93 NNE 15 24 30.04 1017 10 16 0.06 1.52
2:20 pm 14:20 Cloudy with Light Rain 47 8.3 44 6.7 90 90 NNE 15 24 30.06 1018 5 8 0.01 0.25
2:27 pm 14:27 Cloudy with Light Rain 47 8.3 45 7.2 93 93 NNE 15 24 30.06 1018 7 11 0.01 0.25
2:34 pm 14:34 Cloudy with Light Rain 47 8.3 45 7.2 93 93 NNE 18 30 30.06 1018 6 10 0.01 0.25
2:49 pm 14:49 Cloudy with Light Rain 46 8 45 7 93 93 NNE 16 26 30.03 1017 6 10 0.01 0.25
2:53 pm 14:53 Cloudy with Light Rain 47 8.3 44 6.7 90 90 NNE 17 28 30.01 1016 7 11 0.01 0.25
3:53 pm 15:53 Cloudy with Light Rain 47 8.3 44 6.7 90 90 NNE 15 24 29.98 1015 10 16 0.03 0.76
4:01 pm 16:01 Cloudy with Light Rain 48 8.9 45 7.2 89 89 NNE 16 26 30.00 1016 10 16 0.00 0.03
4:30 pm 16:30 Cloudy with Light Rain 46 7.8 44 6.7 93 93 NE 18 30 30.03 1017 7 11 0.01 0.25
4:53 pm 16:53 Cloudy with Rain 46 7.8 44 6.7 93 93 ENE 12 19 30.04 1017 3 5 0.06 1.52
5:10 pm 17:10 Cloudy with Rain 46 7.8 44 6.7 93 93 NE 15 24 30.06 1018 4 6 0.03 0.76
5:37 pm 17:37 Cloudy with Light Rain 46 7.8 44 6.7 93 93 NE 15 24 30.06 1018 7 11 0.09 2.29
5:53 pm 17:53 Cloudy with Light Rain 46 7.8 45 7.2 96 96 NE 15 24 30.04 1017 7 11 0.12 3.05
6:31 pm 18:31 Cloudy with Light Rain 46 7.8 44 6.7 93 93 NE 14 22 30.06 1018 10 16 0.02 0.51
6:53 pm 18:53 Cloudy with Light Rain 45 7.2 43 6.1 93 93 NE 17 28 30.04 1017 10 16 0.02 0.51
7:53 pm 19:53 Cloudy with Light Rain 45 7.2 42 5.6 90 90 NNE 17 28 30.02 1017 10 16 0.01 0.25
8:29 pm 20:29 Cloudy with Light Rain 44 6.7 42 5.6 93 93 N 13 20 30.03 1017 10 16 0.00 0.03
8:36 pm 20:36 Cloudy with Light Rain 44 6.7 42 5.6 93 93 N 13 20 30.03 1017 10 16 0.00 0.03
8:45 pm 20:45 Cloudy with Light Rain 44 6.7 42 5.6 93 93 N 10 17 30.03 1017 10 16 0.01 0.25
8:53 pm 20:53 Cloudy with Rain 44 6.7 42 5.6 93 93 N 13 20 30.02 1017 8 13 0.02 0.51
9:53 pm 21:53 Cloudy with Light Rain 43 6.1 41 5 93 93 N 14 22 30.04 1017 7 11 0.07 1.78
10:33 pm 22:33 Cloudy with Light Rain 43 6.1 41 5 93 93 N 8 13 30.06 1018 10 16 0.06 1.52
10:53 pm 22:53 Cloudy with Light Rain 43 6.1 41 5 93 93 N 10 17 30.05 1018 10 16 0.06 1.52
11:04 pm 23:04 Cloudy with Light Rain 43 6.1 41 5 93 93 N 10 17 30.06 1018 10 16 0.00 0.03
11:53 pm 23:53 Cloudy with Light Rain 43 6.1 41 5 93 93 N 9 15 30.05 1018 10 16 0.02 0.51

Powered by AerisWeather